This is the latest recevied weather packets stored in our database for station/object 9M2SAR-10. If no packets are shown the sender has not sent any weather packets the latest 10 day(s).
| Time | Temp. | Humidity | Pressure | Rain* | Wind** | Luminosity | Snow |
|---|---|---|---|---|---|---|---|
| 1777729587 | 28.33° C | 100% | 1009.3 hPa | - | - | - | - |
| 1777728687 | 27.78° C | 100% | 1009.1 hPa | - | - | - | - |
| 1777727786 | 28.33° C | 100% | 1008.8 hPa | - | - | - | - |
| 1777726886 | 28.33° C | 100% | 1008.6 hPa | - | - | - | - |
| 1777725086 | 28.89° C | 100% | 1008.6 hPa | - | - | - | - |
| 1777724186 | 28.89° C | 100% | 1008.4 hPa | - | - | - | - |
| 1777722386 | 28.33° C | 100% | 1008.3 hPa | - | - | - | - |
| 1777721486 | 28.89° C | 100% | 1008 hPa | - | - | - | - |
| 1777720586 | 29.44° C | 100% | 1007.8 hPa | - | - | - | - |
| 1777719686 | 30° C | 100% | 1007.7 hPa | - | - | - | - |
| 1777718786 | 30.56° C | 100% | 1007.1 hPa | - | - | - | - |
| 1777717886 | 31.11° C | 100% | 1006.9 hPa | - | - | - | - |
| 1777716985 | 31.11° C | 100% | 1006.7 hPa | - | - | - | - |
| 1777716085 | 31.67° C | 100% | 1006.4 hPa | - | - | - | - |
| 1777715185 | 31.67° C | 100% | 1006.5 hPa | - | - | - | - |
| 1777714285 | 31.67° C | 100% | 1006.4 hPa | - | - | - | - |
| 1777713385 | 31.67° C | 100% | 1006 hPa | - | - | - | - |
| 1777712485 | 32.22° C | 100% | 1005.7 hPa | - | - | - | - |
| 1777711585 | 32.22° C | 100% | 1006 hPa | - | - | - | - |
| 1777710685 | 32.78° C | 100% | 1005.8 hPa | - | - | - | - |
| 1777709785 | 33.89° C | 100% | 1006.3 hPa | - | - | - | - |
| 1777708885 | 34.44° C | 100% | 1006.7 hPa | - | - | - | - |
| 1777707985 | 35.56° C | 100% | 1007.3 hPa | - | - | - | - |
| 1777707085 | 33.89° C | 100% | 1007.1 hPa | - | - | - | - |
| 1777706184 | 34.44° C | 100% | 1007.6 hPa | - | - | - | - |
* Rain since midnight (hover to see other rain measurements)
** Current wind speed in m/s (hover to see current wind gust speed)